Regional Weather Roundup
Issued by NWS

Home | Current Version | Previous Version | Graphics & Text | Print | Product List | Glossary On
Versions: 1 2 3 4 5 6 7 8 9 10 11 12 13 14 15 16 17 18 19 20 21 22 23 24 25 26 27 28 29 30 31 32 33 34 35 36 37 38 39 40 41 42 43 44 45 46 47 48 49 50
573
ASUS43 KLMK 260202
RWRKY
KENTUCKY REGIONAL WEATHER ROUNDUP
NATIONAL WEATHER SERVICE LOUISVILLE KY
900 PM EST SUN FEB 25 2018

NOTE "FAIR" INDICATES FEW OR NO CLOUDS BELOW 12,000 FEET
WITH NO SIGNIFICANT WEATHER AND/OR OBSTRUCTIONS TO VISIBILITY.

KYZ001>023-026-027-061>063-070>075-260300-
WESTERN AND SOUTH CENTRAL KENTUCKY

CITY           SKY/WX    TMP DP  RH WIND       PRES   REMARKS
PADUCAH        FAIR      44  36  73 CALM      30.13R
HENDERSON      FAIR      43  37  79 CALM      30.17R
OWENSBORO      FAIR      46  33  60 CALM      30.17R
HOPKINSVILLE   FAIR      48  40  75 N6        30.13S
BOWLING GREEN  FAIR      50  39  66 CALM      30.16R
GLASGOW        NOT AVBL
$$

KYZ024-025-028>034-038-045-046-053-260300-
NORTH CENTRAL KENTUCKY

CITY           SKY/WX    TMP DP  RH WIND       PRES   REMARKS
LOUISVILLE/SDF CLOUDY    47  34  60 SW5       30.15R
LOUISVILLE/LOU FAIR      45  35  68 W5        30.15R
FORT KNOX      CLOUDY    43  32  65 CALM      30.15R
$$

KYZ035>037-039>044-047>052-055>060-089>105-260300-
NORTHEAST KENTUCKY

CITY           SKY/WX    TMP DP  RH WIND       PRES   REMARKS
LEXINGTON      FAIR      46  37  71 CALM      30.14R
COVINGTON      CLOUDY    43  33  68 CALM      30.12S
FRANKFORT      FAIR      44  36  73 CALM      30.13R
$$

KYZ054-064>069-076>088-106>120-260300-
SOUTHEAST KENTUCKY

CITY           SKY/WX    TMP DP  RH WIND       PRES   REMARKS
JACKSON        FAIR      48  39  71 NW5       30.12F
LONDON         FAIR      48  39  71 S6        30.12F
SOMERSET       FAIR      45  39  81 CALM      30.16R
MIDDLESBORO    CLOUDY    50  49  97 CALM      30.14S
MONTICELLO     FAIR      47  42  83 W9        30.16R
$$





USA.gov is the U.S. government's official web portal to all federal, state and local government web resources and services.